This is the latest recevied weather packets stored in our database for station/object N8AMF. If no packets are shown the sender has not sent any weather packets the latest 1 day(s).
| Time | Temp. | Humidity | Pressure | Rain* | Wind** | Luminosity | Snow |
|---|---|---|---|---|---|---|---|
| 1778019088 | 10.56° C | 97% | 1007.3 hPa | 3.05 mm | 0.45 m/s, 358° | 37 W/m² | - |
| 1778018786 | 10° C | 97% | 1007.4 hPa | 4.83 mm | 0 m/s | 39 W/m² | - |
| 1778018483 | 10.56° C | 97% | 1007.4 hPa | 7.11 mm | 1.34 m/s, 349° | 33 W/m² | - |
| 1778018181 | 10.56° C | 97% | 1007.3 hPa | 7.11 mm | 0.89 m/s, 219° | 19 W/m² | - |
| 1778017879 | 10.56° C | 97% | 1007.6 hPa | 4.32 mm | 0.45 m/s, 92° | 13 W/m² | - |
| 1778017577 | 10.56° C | 97% | 1007.2 hPa | 2.29 mm | 0.89 m/s, 340° | 19 W/m² | - |
| 1778017273 | 10.56° C | 97% | 1006.8 hPa | 3.05 mm | 0 m/s | 54 W/m² | - |
| 1778016971 | 10.56° C | 97% | 1007 hPa | 5.33 mm | 0.45 m/s, 205° | 52 W/m² | - |
| 1778016667 | 10.56° C | 96% | 1007 hPa | 3.56 mm | 1.34 m/s, 201° | 45 W/m² | - |
| 1778016363 | 11.11° C | 97% | 1007.1 hPa | 1.78 mm | 0.89 m/s, 352° | 21 W/m² | - |
| 1778016066 | 11.67° C | 96% | 1006.7 hPa | 1.78 mm | 0.89 m/s, 243° | 22 W/m² | - |
| 1778015758 | 11.67° C | 97% | 1006.9 hPa | 3.56 mm | 0.89 m/s, 312° | 32 W/m² | - |
| 1778015455 | 11.67° C | 97% | 1006.7 hPa | 3.56 mm | 0.45 m/s, 13° | 53 W/m² | - |
| 1778015151 | 11.67° C | 96% | 1006.8 hPa | 4.83 mm | 0.45 m/s, 219° | 33 W/m² | - |
| 1778014849 | 11.67° C | 96% | 1006.9 hPa | 4.32 mm | 0.45 m/s, 88° | 51 W/m² | - |
| 1778014546 | 11.67° C | 96% | 1006.9 hPa | 4.32 mm | 0.89 m/s, 326° | 39 W/m² | - |
| 1778014244 | 11.67° C | 96% | 1006.8 hPa | 4.32 mm | 0.45 m/s, 296° | 45 W/m² | - |
| 1778013941 | 11.67° C | 96% | 1007.1 hPa | 3.05 mm | 0.89 m/s, 36° | 52 W/m² | - |
| 1778013638 | 11.67° C | 96% | 1007.1 hPa | 6.1 mm | 0.45 m/s, 302° | 43 W/m² | - |
| 1778013335 | 12.22° C | 96% | 1007.2 hPa | 6.1 mm | 1.34 m/s, 330° | 27 W/m² | - |
| 1778013032 | 13.33° C | 95% | 1007 hPa | 4.83 mm | 0.89 m/s, 223° | 20 W/m² | - |
| 1778012728 | 13.89° C | 96% | 1006.8 hPa | 5.33 mm | 0.45 m/s, 247° | 34 W/m² | - |
| 1778012424 | 13.89° C | 96% | 1006.6 hPa | 2.29 mm | 0.45 m/s, 201° | 77 W/m² | - |
| 1778012121 | 13.89° C | 96% | 1006.8 hPa | 2.29 mm | 0.45 m/s, 203° | 35 W/m² | - |
| 1778011818 | 13.89° C | 95% | 1006.8 hPa | 2.29 mm | 0 m/s | 64 W/m² | - |
* Rain latest hour (hover to see other rain measurements)
** Current wind speed in m/s (hover to see current wind gust speed)